Overview Statistics Trail Chart Weather Telemetry Raw packets
 

This is the latest recevied weather packets stored in our database for station/object K7OWW-2. If no packets are shown the sender has not sent any weather packets the latest 10 day(s).

<< 1 2 3 4 5 6 >>
Time Temp. Humidity Pressure Rain* Wind** Luminosity Snow
1788503924 3.33° C 96% 1012.4 hPa 0 mm - - -
1788503324 3.33° C 96% 1012.2 hPa 0 mm - - -
1788502724 2.78° C 95% 1012.2 hPa 0 mm - - -
1788502124 3.33° C 95% 1012.3 hPa 0 mm - - -
1788501524 3.89° C 94% 1012.2 hPa 0 mm - - -
1788500924 3.89° C 94% 1012.2 hPa 0 mm - - -
1788500325 4.44° C 94% 1012.4 hPa 0.25 mm - - -
1788499724 5° C 94% 1012.5 hPa 0.25 mm - - -
1788499124 5° C 94% 1012.6 hPa 0.25 mm - - -
1788498525 5° C 94% 1012.7 hPa 0.25 mm - - -
1788497925 5.56° C 94% 1012.8 hPa 0.25 mm - - -
1788497325 5.56° C 94% 1012.8 hPa 0.25 mm - - -
1788496725 5.56° C 93% 1012.7 hPa 0.25 mm - - -
1788496125 5.56° C 93% 1012.8 hPa 0.25 mm - - -
1788495525 5.56° C 93% 1012.7 hPa 0.25 mm - - -
1788494925 5.56° C 92% 1012.6 hPa 0.25 mm - - -
1788494325 6.11° C 91% 1012.4 hPa 0.25 mm - - -
1788493725 6.11° C 89% 1012.3 hPa 0.25 mm - - -
1788493125 6.67° C 88% 1012.3 hPa 0 mm - - -
1788492525 6.67° C 89% 1012.3 hPa 0 mm - - -
1788491925 6.67° C 87% 1012.1 hPa 0 mm - - -
1788491325 6.67° C 87% 1012 hPa 0 mm - - -
1788490725 7.22° C 86% 1011.9 hPa 0 mm - - -
1788490125 7.22° C 84% 1011.9 hPa 0 mm - - -
1788489525 7.22° C 83% 1011.9 hPa 0 mm - - -

* Rain latest hour (hover to see other rain measurements)
** Current wind speed in m/s (hover to see current wind gust speed)